[[{"header":{"parameterUnit":"m.s-1","parameterCategory":1,"la1":30.2991,"la2":30.254,"lo1":-89.0895,"lo2":-89.0444,"dy":0.0017,"dx":0.0017,"nx":28,"ny":28,"refTime":"2024-03-14T21:00:00:Z","depth":0,"parameterNumber":2,"parameterNumberName":"U-component_of_WINDS"},"data":[0,0,0,0,0,0,0,0,0,0,0,0,0,0,0,0,0,0,0,0,0,0,0,0,0,0,0,0,0,0,0,0,0,0,0,0,0,0,0,0,0,0,0,0,0,0,0,0,0,0,0,0,0,0,0,0,0,0,-2.8951,-2.8952,0,-2.9045,-2.9046,-2.9047,-2.905,-2.9049,-2.9047,-2.9046,-2.9145,-2.9149,-2.9153,0,0,0,0,0,0,0,0,0,0,0,0,0,-2.8775,-2.8778,-2.8951,-2.8952,-2.8953,-2.9045,-2.9046,-2.9048,-2.905,-2.9049,-2.9047,-2.9046,-2.9144,-2.9149,-2.9153,0,0,0,0,0,0,0,0,0,0,0,0,0,-2.8859,-2.8779,-2.895,-2.8965,-2.8967,-2.9045,-2.9047,-2.9048,-2.905,-2.9048,-2.9047,-2.9045,-2.9143,-2.9148,-2.9154,-2.9223,0,0,-2.9171,-2.9173,0,0,0,0,0,0,0,0,-2.8854,-2.8865,-2.8962,-2.8964,-2.8967,-2.9034,-2.9021,-2.9107,-2.9051,-2.9019,-2.9046,-2.9044,-2.911,-2.9118,-2.914,-2.9228,-2.9232,-2.9171,-2.9175,-2.9177,-2.9179,0,0,0,0,0,0,0,-2.8848,-2.8861,-2.8988,-2.8963,-2.8966,-2.8968,-2.8978,-2.9037,-2.9073,-2.9022,-2.9022,-2.9033,-2.9111,-2.9134,-2.9142,-2.9234,-2.9171,-2.9176,-2.918,-2.9182,-2.9385,-2.9387,0,0,0,0,0,0,-2.8839,-2.8856,-2.8985,-2.8991,-2.8905,-2.8973,-2.8984,-2.9014,-2.9073,-2.908,-2.9034,-2.9033,-2.9126,-2.9136,-2.9146,-2.9231,-2.9177,-2.9182,-2.9186,-2.9383,-2.9386,-2.9388,0,0,0,0,0,0,-2.8835,-2.885,-2.8981,-2.8924,-2.8941,-2.8978,-2.9012,-2.9017,-2.904,-2.9082,-2.9089,-2.9051,-2.9125,-2.9138,-2.9204,-2.9234,-2.9185,-2.919,-2.9381,-2.9384,-2.9387,-2.9402,0,0,0,0,0,0,-2.883,-2.8849,-2.8875,-2.8924,-2.8944,-2.9037,-2.9014,-2.902,-2.905,-2.9048,-2.91,-2.9107,-2.9124,-2.9196,-2.921,-2.9241,-2.9194,-2.9378,-2.9382,-2.9386,-2.9399,-2.9405,-2.9411,0,0,0,0,0,-2.8824,-2.8876,-2.8876,-2.8892,-2.8977,-2.9039,-2.905,-2.9068,-2.9052,-2.9079,-2.9106,-2.9105,-2.9229,-2.9203,-2.9218,-2.9252,-2.9376,-2.9381,-2.9386,-2.9396,-2.9404,-2.9411,0,0,0,0,0,0,-2.883,-2.8883,-2.8884,-2.8953,-2.8991,-2.9039,-2.9073,-2.9076,-2.912,-2.9117,-2.9139,-2.9151,-2.9217,-2.9242,-2.9211,-2.9323,-2.9301,-2.9309,-2.9304,-2.9312,-2.9317,-2.9309,-2.9199,0,0,0,0,0,-2.8839,-2.8884,-2.8928,-2.8985,-2.9005,-2.9036,-2.9064,-2.9075,-2.9116,-2.9132,-2.9164,-2.9205,-2.9253,-2.9284,-2.9331,-2.9404,-2.9415,-2.9435,-2.9441,-2.9445,-2.9451,-2.9492,-2.9501,-2.9403,-2.9403,-2.9403,0,0,-2.8858,-2.8893,-2.892,-2.8987,-2.9018,-2.9066,-2.9049,-2.91,-2.9135,-2.914,-2.9204,-2.9229,-2.9276,-2.9346,-2.9379,-2.9369,-2.9482,-2.9451,-2.9454,-2.9458,-2.9498,-2.9507,-2.9515,-2.9406,-2.9406,-2.9405,0,0,-2.8918,-2.8949,-2.8999,-2.9031,-2.9078,-2.9099,-2.9111,-2.9159,-2.9176,-2.9241,-2.9246,-2.9289,-2.9372,-2.9405,-2.9432,-2.9507,-2.9507,-2.9522,-2.9551,-2.9591,-2.9599,-2.9606,-2.9632,-2.9641,-2.9528,-2.9528,-2.9528,0,-2.8936,-2.9006,-2.9025,-2.9076,-2.9105,-2.9112,-2.9164,-2.9195,-2.9255,-2.9276,-2.9264,-2.9368,-2.94,-2.9478,-2.9496,-2.9519,-2.9534,-2.9515,-2.9596,-2.9603,-2.961,-2.9635,-2.9645,-2.953,-2.9529,-2.9529,-2.9529,0,-2.9026,-2.9075,-2.9111,-2.9168,-2.9202,-2.9253,-2.9281,-2.9314,-2.9323,-2.9345,-2.9412,-2.9451,-2.9506,-2.9526,-2.9535,-2.9606,-2.9598,-2.9591,-2.9569,-2.962,-2.9644,-2.9654,-2.9531,-2.9531,-2.9531,-2.953,0,0,-2.9089,-2.9158,-2.917,-2.9197,-2.925,-2.9289,-2.9342,-2.9395,-2.9422,-2.9465,-2.9509,-2.958,-2.9574,-2.9605,-2.9619,-2.9654,-2.971,-2.9643,-2.9644,-2.9653,-2.979,-2.9794,-2.9804,-2.9712,-2.9714,-2.9715,-2.9786,0,-2.9154,-2.9245,-2.9264,-2.9344,-2.9389,-2.9398,-2.9444,-2.9482,-2.9505,-2.9548,-2.9574,-2.9624,-2.9613,-2.9632,-2.9667,-2.9696,-2.9738,-2.9691,-2.9754,-2.9755,-2.9739,-2.9817,-2.9821,-2.9885,-2.9795,-2.9797,-2.9798,0,-2.924,-2.9283,-2.9367,-2.9415,-2.9435,-2.9475,-2.9526,-2.9567,-2.9612,-2.9626,-2.9663,-2.9673,-2.9729,-2.9706,-2.9784,-2.9752,-2.9779,-2.9798,-2.9801,-2.9806,-2.9778,-2.9823,-2.9906,-2.9915,-2.9813,-2.9812,-2.9811,0,-2.9276,-2.9356,-2.9416,-2.9439,-2.9497,-2.9525,-2.9551,-2.9594,-2.9625,-2.967,-2.9691,-2.9742,-2.977,-2.9811,-2.9835,-2.9816,-2.9911,-2.989,-2.9925,-2.9924,-2.9943,-2.9941,-3.003,-2.9963,-2.9963,-2.9963,-2.9963,0,-2.9344,-2.9395,-2.9433,-2.947,-2.9528,-2.9551,-2.9608,-2.9634,-2.9672,-2.9715,-2.9727,-2.9767,-2.9798,-2.9843,-2.9863,-2.9924,-2.9938,-2.9951,-2.9955,-2.9949,-2.9947,-2.9966,-2.9961,-2.9966,-2.9965,-2.9964,-2.9964,0,-2.9393,-2.9421,-2.9487,-2.9537,-2.9551,-2.9591,-2.9634,-2.9671,-2.9696,-2.975,-2.9764,-2.9802,-2.9856,-2.9885,-2.9953,-2.9967,-3.0035,-3.0038,-3.0019,-3.0021,-3.0054,-3.005,-3.0156,-3.0171,-3.0096,-3.0097,-3.0097,0,-2.9434,-2.9473,-2.9527,-2.9556,-2.9582,-2.963,-2.9661,-2.9687,-2.972,-2.9775,-2.9805,-2.986,-2.9904,-2.999,-3.0025,-3.0077,-3.008,-3.0114,-3.0088,-3.0081,-3.008,-3.0076,-3.008,-3.0118,-3.0119,-3.0119,-3.012,0,-2.9503,-2.9516,-2.956,-2.961,-2.9648,-2.9689,-2.9729,-2.9753,-2.9786,-2.9822,-2.9877,-2.9912,-2.9981,-3.0035,-3.009,-3.0118,-3.0125,-3.0128,-3.0139,-3.0132,-3.0119,-3.0125,-3.003,-3.0125,-3.0125,-3.0124,-3.0124,-3.0124,-2.9549,-2.9584,-2.9627,-2.9677,-2.9711,-2.9749,-2.9786,-2.9815,-2.986,-2.9918,-2.9931,-2.9989,-3.0035,-3.0109,-3.0139,-3.0186,-3.0179,-3.0195,-3.0198,-3.0201,-3.0202,-3.0113,-3.0196,-3.0196,-3.0196,-3.0196,-3.0196,0,-2.9618,-2.9646,-2.9692,-2.9748,-2.9788,-2.9791,-2.9836,-2.9869,-2.992,-2.9961,-3.0005,-3.0069,-3.0122,-3.0161,-3.0216,-3.0245,-3.025,-3.0259,-3.0256,-3.0262,-3.0205,-3.019,-3.0254,-3.0254,-3.0254,-3.0254,-3.0254,-3.0254,-2.9658,-2.9717,-2.9735,-2.9812,-2.9841,-2.9896,-2.9922,-2.9958,-2.9991,-3.0061,-3.0105,-3.013,-3.0171,-3.0229,-3.0278,-3.0289,-3.0308,-3.0316,-3.0327,-3.0273,-3.0266,-3.026,-3.0246,-3.0321,-3.0321,-3.038,-3.038,-3.0381]},{"header":{"parameterUnit":"m.s-1","parameterCategory":1,"la1":30.2991,"la2":30.254,"lo1":-89.0895,"lo2":-89.0444,"dy":0.0017,"dx":0.0017,"nx":28,"ny":28,"refTime":"2024-03-14T21:00:00:Z","depth":0,"parameterNumber":3,"parameterNumberName":"V-component_of_WINDS"},"data":[0,0,0,0,0,0,0,0,0,0,0,0,0,0,0,0,0,0,0,0,0,0,0,0,0,0,0,0,0,0,0,0,0,0,0,0,0,0,0,0,0,0,0,0,0,0,0,0,0,0,0,0,0,0,0,0,0,0,3.2245,3.2246,0,3.2307,3.2308,3.2309,3.2299,3.2298,3.2297,3.2296,3.2359,3.2361,3.2364,0,0,0,0,0,0,0,0,0,0,0,0,0,3.2118,3.2121,3.2245,3.2246,3.2247,3.2307,3.2308,3.2309,3.23,3.2298,3.2297,3.2296,3.2358,3.2361,3.2364,0,0,0,0,0,0,0,0,0,0,0,0,0,3.2176,3.2121,3.2245,3.2249,3.225,3.2307,3.2308,3.2309,3.23,3.2298,3.2297,3.2295,3.2357,3.2361,3.2365,3.2421,0,0,3.2377,3.2379,0,0,0,0,0,0,0,0,3.2173,3.2181,3.2248,3.2249,3.225,3.2294,3.2286,3.2347,3.23,3.2281,3.2296,3.2295,3.2339,3.2344,3.2359,3.2424,3.2426,3.2377,3.238,3.2381,3.2382,0,0,0,0,0,0,0,3.2169,3.2178,3.227,3.2249,3.225,3.2248,3.2255,3.2298,3.2318,3.2283,3.2282,3.229,3.2339,3.2355,3.236,3.2427,3.2377,3.2381,3.2383,3.2385,3.2544,3.2546,0,0,0,0,0,0,3.2164,3.2175,3.2268,3.2272,3.2207,3.2252,3.2259,3.2282,3.2317,3.2321,3.2291,3.2289,3.2349,3.2356,3.2363,3.2433,3.2381,3.2385,3.2387,3.2542,3.2545,3.2547,0,0,0,0,0,0,3.2161,3.2172,3.2265,3.2223,3.2235,3.2256,3.2281,3.2284,3.23,3.2324,3.2327,3.2304,3.2348,3.2357,3.2407,3.2435,3.2387,3.239,3.254,3.2543,3.2546,3.2573,0,0,0,0,0,0,3.2158,3.2171,3.2193,3.2224,3.2237,3.2309,3.2283,3.2286,3.2307,3.2305,3.2337,3.2341,3.2348,3.2401,3.2411,3.244,3.2394,3.2538,3.2541,3.2545,3.2569,3.2576,3.2582,0,0,0,0,0,3.2153,3.2197,3.2194,3.2205,3.2264,3.231,3.2318,3.2326,3.2309,3.2331,3.2347,3.234,3.243,3.2407,3.2417,3.2447,3.2536,3.254,3.2544,3.2567,3.2575,3.2582,0,0,0,0,0,0,3.2167,3.2201,3.2198,3.2253,3.2279,3.2309,3.2337,3.2334,3.2364,3.2361,3.2369,3.2376,3.2428,3.2442,3.2416,3.2505,3.2481,3.2487,3.2494,3.2502,3.2508,3.2504,3.2397,0,0,0,0,0,3.2177,3.2212,3.2239,3.2285,3.2299,3.2315,3.2336,3.234,3.2367,3.2377,3.2396,3.2423,3.2458,3.248,3.2513,3.2571,3.2579,3.2597,3.2603,3.2608,3.2614,3.2649,3.2658,3.256,3.256,3.256,0,0,3.2197,3.222,3.2241,3.2289,3.2309,3.2346,3.2325,3.2363,3.2391,3.2383,3.2433,3.2448,3.2478,3.2533,3.2558,3.2546,3.2643,3.2613,3.2617,3.2621,3.2654,3.2663,3.2671,3.2563,3.2563,3.2562,0,0,3.2253,3.2273,3.2315,3.2337,3.2369,3.238,3.239,3.2421,3.2431,3.2481,3.2476,3.2509,3.2567,3.259,3.2609,3.2676,3.2671,3.2686,3.2719,3.2752,3.276,3.2767,3.2793,3.2802,3.2692,3.2692,3.2692,0,3.2275,3.233,3.2337,3.2377,3.2399,3.2395,3.2438,3.2458,3.2499,3.2515,3.2501,3.2577,3.2596,3.2658,3.2675,3.2689,3.2702,3.2683,3.2758,3.2766,3.2772,3.2797,3.2807,3.2694,3.2694,3.2693,3.2693,0,3.2355,3.2393,3.2423,3.2465,3.249,3.2531,3.2545,3.257,3.2572,3.2584,3.2636,3.266,3.2699,3.2713,3.2715,3.2776,3.2769,3.2757,3.2733,3.2783,3.2807,3.2817,3.2696,3.2696,3.2695,3.2695,0,0,3.2422,3.2468,3.2479,3.2499,3.2535,3.2565,3.2606,3.2645,3.2667,3.2696,3.2732,3.2783,3.2773,3.2795,3.2799,3.2828,3.2883,3.2813,3.2814,3.2827,3.2955,3.2965,3.2976,3.2879,3.2881,3.2882,3.2953,0,3.2484,3.2559,3.2567,3.2634,3.2671,3.2668,3.2704,3.273,3.2744,3.2777,3.2791,3.2828,3.2811,3.2825,3.2853,3.287,3.2909,3.2865,3.2915,3.2916,3.2909,3.2988,3.2999,3.3064,3.2962,3.2964,3.2965,0,3.2566,3.2598,3.2669,3.2702,3.2718,3.2751,3.2789,3.282,3.285,3.2858,3.2883,3.2884,3.2928,3.2901,3.2963,3.2933,3.2954,3.2965,3.2968,3.2975,3.2945,3.2999,3.3085,3.3096,3.2979,3.2978,3.2977,0,3.2611,3.2672,3.2723,3.274,3.2779,3.2802,3.282,3.2848,3.2872,3.2904,3.292,3.2957,3.2978,3.3007,3.3018,3.2997,3.308,3.3054,3.309,3.309,3.3109,3.3108,3.3202,3.3118,3.3118,3.3118,3.3118,0,3.268,3.2724,3.2745,3.2776,3.2826,3.2836,3.2885,3.2901,3.2927,3.2962,3.296,3.2993,3.3005,3.3041,3.3049,3.3101,3.3109,3.3118,3.312,3.312,3.3119,3.3135,3.3132,3.312,3.312,3.3119,3.3119,0,3.274,3.2755,3.2811,3.2844,3.2853,3.2889,3.2917,3.2948,3.2961,3.3006,3.3017,3.3038,3.308,3.3093,3.3143,3.3149,3.321,3.3207,3.3201,3.3202,3.3238,3.3235,3.3347,3.3363,3.3266,3.3267,3.3268,0,3.2784,3.2819,3.2856,3.288,3.2898,3.2936,3.2961,3.2972,3.2998,3.3036,3.3063,3.3104,3.3138,3.3205,3.3225,3.3264,3.3263,3.33,3.3269,3.3268,3.3267,3.3266,3.3271,3.3306,3.3307,3.3308,3.3309,0,3.2863,3.2869,3.2905,3.2944,3.2974,3.3005,3.3035,3.3055,3.307,3.3099,3.3142,3.3169,3.3221,3.3263,3.3303,3.3321,3.3319,3.3318,3.3329,3.333,3.3326,3.3331,3.3219,3.3316,3.3315,3.3315,3.3314,3.3314,3.2918,3.2949,3.2981,3.3022,3.3046,3.3074,3.3106,3.3124,3.316,3.3204,3.3208,3.3255,3.3286,3.334,3.336,3.3397,3.3387,3.3402,3.3406,3.3411,3.3415,3.3318,3.3404,3.3404,3.3404,3.3404,3.3404,0,3.2999,3.3019,3.3057,3.31,3.3132,3.3126,3.316,3.3187,3.3229,3.3258,3.3293,3.3344,3.3385,3.3408,3.3449,3.3475,3.3475,3.3486,3.3486,3.349,3.342,3.3408,3.3486,3.3486,3.3486,3.3486,3.3486,3.3486,3.3045,3.3099,3.3109,3.3175,3.3195,3.3242,3.3262,3.3289,3.3313,3.337,3.3404,3.3419,3.3447,3.3491,3.3529,3.3534,3.3551,3.3563,3.3569,3.3503,3.3495,3.3487,3.3476,3.3566,3.3566,3.3636,3.3637,3.3637]}]]